Location: Fort Worth, Tx
(32.7431°N, 97.3695°W)
Time: 00:42:28
(UTC-04:00)

Transit 2A - Visible Passes

Search period start: 15 September 2024 00:00
Search period end: 25 September 2024 00:00
Orbit: 590 x 961 km, 66.7° (Epoch: 14 September)

Date Brightness Start Highest point End Pass type
(mag) Time Alt. Az. Time Alt. Az. Time Alt. Az.
15 Sep 6.9 06:00:18 10° NNW 06:06:20 56° ENE 06:11:50 10° SE visible
15 Sep 7.5 07:45:03 10° WNW 07:48:49 18° WSW 07:52:25 10° SW visible
15 Sep 9.3 22:20:56 10° WNW 22:23:21 12° NW 22:25:49 10° NNW visible
16 Sep 7.6 05:25:07 10° N 05:30:47 37° ENE 05:36:01 10° SE visible
16 Sep 7.0 07:08:43 10° NW 07:13:41 28° WSW 07:18:17 10° SSW visible
16 Sep 9.1 21:43:35 10° W 21:47:32 18° NW 21:51:38 10° N visible
17 Sep 8.2 04:50:06 10° N 04:55:09 26° NE 04:59:51 10° ESE visible
17 Sep 6.5 06:32:50 10° NW 06:38:28 43° WSW 06:43:39 10° S visible
17 Sep 8.7 21:06:59 10° WSW 21:11:47 25° NW 21:16:53 10° N visible
18 Sep 9.1 04:15:20 10° N 04:15:28 10° N 04:15:28 10° N visible
18 Sep8.606:09:08SSE06:09:08SSE05:55:41NNWvisible
20 Sep 9.2 21:06:34 10° WNW 21:09:16 13° NW 21:12:02 10° NNW visible
